sat.trackr.live / text

‹ back to catalog

HULIANWANG DIGUI-133

NORAD 67241 · 2025-311F

PAYLOAD ACTIVE UNKNOWN

§ Identity

Operator
Country
PRC
Launch date
2025-12-25
Launch site
WSC
Launch vehicle
Mass (kg)
RCS (m²)

External: N2YO · Heavens-Above · Gunter

§ Orbital elements

Epoch: 2026-09-20T21:58:13.872576Z

Period
108.33 min
Inclination
50.0094°
Eccentricity
0.0000195
Mean motion
13.29327825 rev/d
Perigee alt
1,149.2 km
Apogee alt
1,149.4 km
Semi-major
7,527.4 km
B*
5.3762e-5
RAAN
132.5112°
Arg perigee
355.8781°
Mean anomaly
4.2089°
Rev number
3,607

§ Raw data

HULIANWANG DIGUI-1331 67241U 25311F   26263.91543834 -.00000099  00000+0  53762-4 0  99932 67241  50.0094 132.5112 0000195 355.8781   4.2089 13.29327825 36078

JSON: /api/v1/satellites/67241 · /tle

For live sub-satellite position, see the globe view (requires WebGL).

§ Visibility from observer

Set your observer location to see the next 7 days of passes ≥ 10°. The values pass through the URL so the page stays shareable.

No JS? Fill the form by hand. The geolocation button needs JavaScript.